Regional Weather Roundup
Issued by NWS

Home | Current Version | Previous Version | Text Only | Print | Product List | Glossary On
Versions: 1 2 3 4 5 6 7 8 9 10 11 12 13 14 15 16 17 18 19 20 21 22 23 24 25 26 27 28 29 30 31 32 33 34 35 36 37 38 39 40 41 42 43 44 45 46 47 48 49 50
000
ASUS43 KMPX 162201
RWRMN
WEATHER ROUNDUP FOR MINNESOTA
NATIONAL WEATHER SERVICE TWIN CITIES/CHANHASSEN MN
400 PM CST MON JAN 16 2017


NOTE: "FAIR" INDICATES FEW OR NO CLOUDS BELOW 12,000 FEET WITH NO
SIGNIFICANT WEATHER AND/OR OBSTRUCTIONS TO VISIBILITY. N/A MEANS
CURRENT SKY AND/OR WEATHER CONDITIONS ARE NOT AVAILABLE.

MNZ060>063-068>070-162300-
   Twin Cities Metro

CITY           SKY/WX    TMP DP  RH WIND       PRES   REMARKS
TWIN CITIES    CLOUDY    31  22  69 E6        30.05S WCI  25
ST PAUL        CLOUDY    31  23  72 E6        30.06F WCI  25
CRYSTAL        CLOUDY    32  21  64 NE6       30.04F WCI  26
BLAINE         CLOUDY    32  25  74 E7        30.04F WCI  26
LAKEVILLE      CLOUDY    28  23  80 NE5       30.03F WCI  23
EDEN PRAIRIE   CLOUDY    32  23  69 NE5       30.03S WCI  27
SOUTH ST PAUL  CLOUDY    32  23  68 NE3       30.05S
LAKE ELMO      CLOUDY    30  23  74 NE6       30.06S WCI  24
$$
MNZ001>005-007-008-013>017-022>024-027-028-162300-
   Northwest Minnesota

CITY           SKY/WX    TMP DP  RH WIND       PRES   REMARKS
BEMIDJI        CLEAR     30  20  66 E3        30.00S
HALLOCK        CLOUDY    12   7  79 SE5       30.04S WCI   4
ROSEAU         CLOUDY    16   9  73 N3        30.04R
WARROAD        CLOUDY    19  12  73 CALM      30.03R
THIEF RVR FALL CLOUDY    18  10  71 SW5       30.04R WCI  11
CROOKSTON      CLOUDY    16  10  79 SW5       30.06R WCI   9
FOSSTON        CLEAR     21  14  73 SW8       30.01S WCI  12
DETROIT LAKES  CLOUDY    28  19  69 CALM      30.02S
MOORHEAD       CLOUDY    18  10  73 CALM      30.05F
PARK RAPIDS    CLOUDY    30  18  60 NE3       29.99F
MAHNOMEN       FAIR      19  13  79 SW5       30.02S WCI  12
$$
MNZ006-009>011-018-025>026-162300-
   North Central Minnesota

CITY           SKY/WX    TMP DP  RH WIND       PRES   REMARKS
BAUDETTE       CLOUDY    25  13  60 CALM      30.01R
FLAG ISLAND    CLOUDY    16   9  73 SE5       30.02S WCI   9
INTL FALLS     CLEAR     28  15  58 NE5       30.02S WCI  23
WASKISH        CLEAR     25  16  68 CALM      30.01S
BIG FORK       CLEAR     30  19  64 SW5       30.01S WCI  25
LONGVILLE      CLEAR     36  21  55 CALM      30.00F
GRAND RAPIDS   CLEAR     33  20  58 E3        30.03F
CRANE LAKE     CLEAR     30  18  59 CALM      30.05S
ORR            CLEAR     34  16  47 CALM      30.00R
COOK           CLEAR     34  21  60 CALM      30.02S
WALKER         FAIR      26  18  71 CALM      30.00F
$$
MNZ012-019>021-037-162300-
   Northeast Minnesota

CITY           SKY/WX    TMP DP  RH WIND       PRES   REMARKS
DULUTH         CLEAR     32  19  58 S5        30.03S WCI  27
ELY            CLEAR     34  21  60 SW3       30.02S
HIBBING        CLEAR     29  18  63 SE3       30.02F
EVELETH        CLEAR     30  15  53 CALM      30.03F
DULUTH HARBOR  CLOUDY    34  21  60 CALM      30.08S
TWO HARBORS    CLEAR     34  23  64 S3        30.02F
SILVER BAY     CLEAR     34  25  69 CALM      30.02F
GRAND MARAIS     N/A     34  27  75 SW7       30.08S WCI  28
G MARAIS ARPRT CLEAR     30  19  64 SE5       30.03S WCI  25
$$
MNZ029>031-032-039>041-046>048-054>057-064-162300-
   West Central Minnesota

CITY           SKY/WX    TMP DP  RH WIND       PRES   REMARKS
FERGUS FALLS   CLOUDY    21  16  79 CALM      30.07S
WHEATON        CLEAR     25  21  86 CALM      30.07R
MORRIS         CLEAR     27  19  74 CALM      30.02F
ALEXANDRIA     CLOUDY    30  19  63 CALM      30.02S
ELBOW LAKE     FAIR      24  18  78 CALM      30.04R HAZE
WADENA         CLOUDY    27  18  69 S3        30.02R
GLENWOOD       FOG       27  25  93 E3        30.03S VSB 1/4
APPLETON       CLOUDY    21  18  86 CALM      30.04S
ORTONVILLE     CLEAR     27  18  69 CALM      30.03S
MADISON        CLOUDY    25  19  80 N6        30.04S WCI  18
WILLMAR        CLOUDY    34  28  80 CALM      30.03S
$$
MNZ033>034-036-042>043-049>051-058-059-162300-
   Central Minnesota

CITY           SKY/WX    TMP DP  RH WIND       PRES   REMARKS
ST CLOUD       CLOUDY    28  25  88 CALM      30.04S FOG
SAUK CENTRE    FOG       27  26  99 CALM      30.04R VSB<1/4
PAYNESVILLE    CLOUDY    30  30 100 CALM      30.04R FOG
AITKIN         CLEAR     34  16  47 CALM      30.03R
PINE RIVER     CLEAR     28  19  69 SE3       30.05S
BRAINERD       CLEAR     29  18  63 S7        30.03S WCI  22
STAPLES        CLEAR     28  18  64 CALM      30.03R
LONG PRAIRIE   FAIR      30  19  64 CALM      30.03S HAZE
LITTLE FALLS   CLOUDY    30  19  64 CALM      30.04S
LITCHFIELD     CLOUDY    32  28  86 NE3       30.03F
BUFFALO        CLOUDY    31  25  77 NE6       30.05S WCI  26
MAPLE LAKE     CLOUDY    31  24  76 NE5       30.05S WCI  26
HUTCHINSON     CLOUDY    32  29  90 NE7       30.03S WCI  25
$$
MNZ037-044-045-052-053-162300-
   East Central Minnesota

CITY           SKY/WX    TMP DP  RH WIND       PRES   REMARKS
PRINCETON      CLOUDY    30  19  64 CALM      30.05F
MORA           CLOUDY    27  19  74 CALM      30.07S
CAMBRIDGE      CLOUDY    32  19  59 CALM      30.04F
RUSH CITY      CLOUDY    28  18  64 CALM      30.06F
MOOSE LAKE     CLEAR     32  19  59 CALM      30.04S
HINCKLEY       FAIR      28  21  74 CALM      30.06S
CLOQUET        CLEAR     32  16  51 CALM      30.04S
MCGREGOR       CLEAR     32  21  64 CALM      30.04S
$$
MNZ071>073-080-081-089-090-097-098-162300-
   Southwest Minnesota

CITY           SKY/WX    TMP DP  RH WIND       PRES   REMARKS
MONTEVIDEO     CLOUDY    28  23  80 NE3       30.04S
GRANITE FALLS  CLOUDY    33  29  85 N5        30.03S WCI  28
CANBY            N/A     30  24  78 CALM      30.02F
MARSHALL       CLOUDY    30  24  78 N3        30.01S
REDWOOD FALLS  CLOUDY    31  26  82 NE6       30.01F HAZE    WCI  25
OLIVIA         CLOUDY    32  30  93 E6        30.01S FOG     WCI  26
PIPESTONE      MIX PCPN  30  28  93 NE5       29.96S WCI  25
WINDOM         MIX PCPN  30  28  93 N8        29.97F WCI  23
WORTHINGTON    LGT SNOW  30  29  96 NE10        N/A  FOG     WCI  21
JACKSON        RAIN      30  30 100 NE8       29.97S WCI  23
TRACY          CLOUDY    30  28  90 NE6       29.99F FOG     WCI  24
SLAYTON        CLOUDY    29  26  89 N6        29.98S WCI  23
$$
MNZ065>067-074>077-082>085-091>093-162300-
   South Central Minnesota

CITY           SKY/WX    TMP DP  RH WIND       PRES   REMARKS
MANKATO        LGT SNOW  31  29  92 NE12      30.00F FOG     WCI  22
NEW ULM        CLOUDY    28  28 100 NE7       30.00F FOG     WCI  21
ST JAMES       MIX PCPN  30  30 100 N7        30.00F WCI  23
FAIRMONT       MIX PCPN  31  30  96 NE8       29.98S FOG     WCI  23
GLENCOE        CLOUDY    32  30  93 NE3       30.02S FOG
FARIBAULT      MIX PCPN  28  27  93 NE6       30.01F WCI  22
OWATONNA       LGT RAIN  30  28  93 E7        30.00S WCI  23
WASECA         MIX PCPN  32  30  93 NE7       30.01S WCI  26
ALBERT LEA     MIX PCPN  32  32 100 NE8       29.97F WCI  25
$$
MNZ078>079-086>088-094>096-162300-
   Southeast Minnesota

CITY           SKY/WX    TMP DP  RH WIND       PRES   REMARKS
ROCHESTER      FRZ RAIN  30  29  96 NE13      29.99F FOG     WCI  20
RED WING       MIX PCPN  30  23  74 E5        30.04F WCI  25
STANTON        MIX PCPN  31  27  83 NE6       30.01F WCI  25
DODGE CENTER   MIX PCPN  30  28  93 NE9       29.99F WCI  22
WINONA         MIX PCPN  30  28  93 CALM      30.06S
AUSTIN         MIX PCPN  32  30  93 NE9       29.97F WCI  24
PRESTON        MIX PCPN  31  29  95 NE6       29.99F WCI  25
$$
ABBREVIATIONS USED IN REMARKS
   TC - TEMPERATURES IN CELSIUS
  WCI - WIND CHILL INDEX
   HX - HEAT INDEX
  VSB - VISIBILITY
$$




USA.gov is the U.S. government's official web portal to all federal, state and local government web resources and services.